This demonstration page uses our WeatherBlox Daily Observations layout. Learn more.

40.92945, -100.16068

Hourly Observations for October 30, 2020

Temp ( °F °C ) Dew Point ( °F °C ) Humidity (%) Winds ( mph kmh ) Pressure ( in mb ) Visibility ( mi km ) Precip ( " mm )
12:15 am 00:15 Clear 32 0.1 29 -1.8 87 87 NNW 3 6 30.2 1023 10 16.0934 0 0
12:35 am 00:35 Clear 32 0 28 -2 87 87 W 5 7 30.2 1023 10 16.0934 0 0
12:55 am 00:55 Clear 31 -0.5 28 -2.5 87 87 W 5 7 30.21 1023 10 16.0934 0 0
1:15 am 01:15 Clear 31 -0.3 28 -2.3 87 87 W 7 11 30.21 1023 10 16.0934 0 0
1:35 am 01:35 Clear 31 -0.4 29 -1.8 90 90 WNW 7 11 30.21 1023 10 16.0934 0 0
1:55 am 01:55 Clear 31 -0.3 29 -1.9 89 89 WNW 8 13 30.21 1023 10 16.0934 0 0
2:15 am 02:15 Clear 32 -0.1 29 -1.5 90 90 WNW 8 13 30.22 1023 10 16.0934 0 0
2:35 am 02:35 Clear 31 -0.7 29 -1.9 92 92 WNW 8 13 30.22 1024 10 16.0934 0 0
2:55 am 02:55 Clear 33 0.3 31 -0.6 94 94 NW 10 17 30.21 1023 10 16.0934 0 0
3:15 am 03:15 Clear 33 0.8 31 -0.3 92 92 NW 5 7 30.21 1023 10 16.0934 0 0
3:35 am 03:35 Clear 35 1.5 32 -0.1 89 89 WNW 7 11 30.21 1023 10 16.0934 0 0
3:55 am 03:55 Clear 34 1.3 32 -0.2 90 90 W 6 9 30.21 1023 10 16.0934 0 0
4:15 am 04:15 Clear 34 1 31 -0.5 90 90 WNW 9 15 30.22 1023 10 16.0934 0 0
4:35 am 04:35 Clear 35 1.5 32 -0.1 89 89 WNW 9 15 30.21 1023 10 16.0934 0 0
4:55 am 04:55 Clear 34 0.9 31 -0.4 91 91 WNW 6 9 30.22 1023 10 16.0934 0 0
5:15 am 05:15 Clear 32 0.1 30 -0.9 93 93 WNW 8 13 30.23 1024 10 16.0934 0 0
5:35 am 05:35 Clear 33 0.3 31 -0.8 92 92 WNW 9 15 30.23 1024 10 16.0934 0 0
5:55 am 05:55 Clear 33 0.7 31 -0.5 92 92 WNW 8 13 30.23 1024 10 16.0934 0 0
6:15 am 06:15 Clear 33 0.5 31 -0.6 92 92 WNW 7 11 30.24 1024 10 16.0934 0 0
6:35 am 06:35 Clear 32 0 30 -1 93 93 WNW 8 13 30.25 1024 10 16.0934 0 0
6:55 am 06:55 Clear 32 0 30 -1.1 92 92 WNW 6 9 30.25 1024 10 16.0934 0 0
7:15 am 07:15 Clear 31 -0.3 29 -1.4 92 92 WNW 7 11 30.26 1025 10 16.0934 0 0
7:35 am 07:35 Clear 31 -0.7 29 -1.7 93 93 WNW 7 11 30.27 1025 10 16.0934 0 0
7:55 am 07:55 Clear 31 -0.5 29 -1.5 93 93 WNW 7 11 30.27 1025 10 16.0934 0 0
8:15 am 08:15 Sunny 31 -0.8 29 -1.7 94 94 WNW 5 7 30.28 1025 10 16.0934 0 0
8:35 am 08:35 Sunny 30 -1.1 28 -2.1 93 93 NW 5 7 30.29 1026 10 16.0934 0 0
8:55 am 08:55 Sunny 33 0.5 31 -0.7 92 92 WNW 6 9 30.28 1025 10 16.0934 0 0
9:15 am 09:15 Sunny 36 2 32 0 87 87 WNW 7 11 30.27 1025 10 16.0934 0 0
9:35 am 09:35 Sunny 38 3.4 34 0.9 84 84 WNW 6 9 30.26 1025 10 16.0934 0 0
9:55 am 09:55 Sunny 40 4.7 35 1.4 79 79 WNW 7 11 30.25 1024 10 16.0934 0 0
10:15 am 10:15 Sunny 44 6.4 37 2.5 76 76 WNW 6 9 30.24 1024 10 16.0934 0 0
10:35 am 10:35 Sunny 46 7.9 37 3 71 71 WNW 6 9 30.22 1023 10 16.0934 0 0
10:55 am 10:55 Sunny 49 9.6 38 3.4 66 66 WNW 3 6 30.2 1023 10 16.0934 0 0
11:15 am 11:15 Sunny 52 11 38 3.6 61 61 WNW 3 6 30.18 1022 10 16.0934 0 0
11:35 am 11:35 Sunny 55 12.7 39 3.7 55 55 Calm 30.17 1022 10 16.0934 0 0
11:55 am 11:55 Sunny 57 14 39 3.7 50 50 Calm 30.14 1021 10 16.0934 0 0
12:15 pm 12:15 Sunny 60 15.7 38 3.1 43 43 Calm 30.13 1020 10 16.0934 0 0
12:35 pm 12:35 Sunny 62 16.6 38 3.3 41 41 Calm 30.11 1020 10 16.0934 0 0
12:55 pm 12:55 Sunny 63 17 36 2.4 38 38 ESE 6 9 30.1 1019 10 16.0934 0 0
1:10 pm 13:10 Sunny 64 17.8 36 2.2 35 35 SE 5 7 30.08 1019 10 16.0934 0 0
1:35 pm 13:35 Sunny 66 18.7 36 2.2 33 33 SE 7 11 30.05 1018 10 16.0934 0 0
1:55 pm 13:55 Sunny 66 19 35 1.6 31 31 SE 7 11 30.04 1017 10 16.0934 0 0
2:15 pm 14:15 Sunny 68 19.8 35 1.5 30 30 SE 8 13 30.01 1016 10 16.0934 0 0
2:35 pm 14:35 Sunny 69 20.3 35 1.4 29 29 SSE 9 15 30 1016 10 16.0934 0 0
2:55 pm 14:55 Sunny 69 20.7 34 1.1 27 27 SSE 12 19 29.99 1015 10 16.0934 0 0
3:15 pm 15:15 Sunny 70 21.1 34 1.3 27 27 S 15 24 29.97 1015 10 16.0934 0 0
3:35 pm 15:35 Sunny 70 21.1 34 1.1 27 27 SSE 15 24 29.96 1015 10 16.0934 0 0
3:55 pm 15:55 Sunny 70 21.2 35 1.5 27 27 SSW 14 22 29.95 1014 10 16.0934 0 0
4:15 pm 16:15 Sunny 69 20.7 34 1 27 27 S 16 26 29.96 1014 10 16.0934 0 0
4:35 pm 16:35 Sunny 69 20.4 35 1.5 29 29 SSE 15 24 29.95 1014 10 16.0934 0 0
4:55 pm 16:55 Sunny 69 20.4 35 1.4 28 28 SSE 12 19 29.95 1014 10 16.0934 0 0
5:15 pm 17:15 Sunny 68 20.2 35 1.5 29 29 S 12 19 29.94 1014 10 16.0934 0 0
5:35 pm 17:35 Sunny 68 19.8 35 1.6 30 30 SSE 13 20 29.93 1014 10 16.0934 0 0
5:55 pm 17:55 Sunny 66 19.1 36 2 32 32 SSE 10 17 29.93 1014 10 16.0934 0 0
6:15 pm 18:15 Sunny 64 18 35 1.8 34 34 SSE 10 17 29.94 1014 10 16.0934 0 0
6:35 pm 18:35 Sunny 61 16.3 35 1.6 37 37 SSE 10 17 29.94 1014 10 16.0934 0 0
6:55 pm 18:55 Clear 59 15.1 34 1.3 39 39 SSE 10 17 29.95 1014 10 16.0934 0 0
7:15 pm 19:15 Clear 56 13.6 34 1.1 43 43 SSE 10 17 29.97 1015 10 16.0934 0 0
7:35 pm 19:35 Clear 55 12.9 34 1 44 44 SSE 7 11 29.96 1015 10 16.0934 0 0
7:55 pm 19:55 Clear 55 12.5 34 1 46 46 SSE 8 13 29.97 1015 10 16.0934 0 0
8:15 pm 20:15 Clear 53 11.6 34 1.1 49 49 SSE 10 17 29.98 1015 10 16.0934 0 0
8:35 pm 20:35 Clear 53 11.7 34 1.3 49 49 SSE 12 19 29.98 1015 10 16.0934 0 0
8:55 pm 20:55 Clear 52 11.1 34 1.3 51 51 SSE 9 15 29.97 1015 10 16.0934 0 0
9:15 pm 21:15 Clear 52 11.3 35 1.6 52 52 SSE 10 17 29.97 1015 10 16.0934 0 0
9:35 pm 21:35 Clear 53 11.5 35 1.7 51 51 SSE 9 15 29.96 1014 10 16.0934 0 0
9:55 pm 21:55 Clear 51 10.5 35 1.7 55 55 SSE 9 15 29.97 1015 10 16.0934 0 0
10:15 pm 22:15 Clear 50 10.1 35 1.9 57 57 SE 9 15 29.96 1015 10 16.0934 0 0
10:35 pm 22:35 Clear 51 10.6 36 2 56 56 SSE 9 15 29.96 1014 10 16.0934 0 0
10:55 pm 22:55 Clear 52 11.1 36 2.3 55 55 SE 9 15 29.94 1014 10 16.0934 0 0
11:15 pm 23:15 Clear 50 9.8 36 2.2 59 59 S 6 9 29.95 1014 10 16.0934 0 0
11:35 pm 23:35 Clear 53 11.6 38 3.1 56 56 SSW 13 20 29.93 1013 10 16.0934 0 0
11:55 pm 23:55 Clear 53 11.4 38 3.4 58 58 SSW 15 24 29.93 1013 10 16.0934 0 0

Powered by AerisWeather